This is the latest recevied weather packets stored in our database for station/object UB2FAY-13. If no packets are shown the sender has not sent any weather packets the latest 10 day(s).
| Time | Temp. | Humidity | Pressure | Rain* | Wind** | Luminosity | Snow |
|---|---|---|---|---|---|---|---|
| 1777526219 | 10.56° C | 69% | 1030.5 hPa | 0 mm | - | - | - |
| 1777525619 | 10.56° C | 69% | 1030.7 hPa | 0 mm | - | - | - |
| 1777525019 | 10.56° C | 69% | 1030.7 hPa | 0 mm | - | - | - |
| 1777524424 | 10.56° C | 69% | 1030.7 hPa | 0 mm | - | - | - |
| 1777523819 | 10.56° C | 70% | 1030.5 hPa | 0 mm | - | - | - |
| 1777523260 | 10.56° C | 70% | 1030.5 hPa | 0 mm | - | - | - |
| 1777523219 | 10.56° C | 70% | 1030.5 hPa | 0 mm | - | - | - |
| 1777522619 | 10° C | 70% | 1030.7 hPa | 0 mm | - | - | - |
| 1777522019 | 10° C | 70% | 1030.5 hPa | 0 mm | - | - | - |
| 1777521419 | 10° C | 71% | 1030.6 hPa | 0 mm | - | - | - |
| 1777520219 | 9.44° C | 71% | 1030.6 hPa | 0 mm | - | - | - |
| 1777519622 | 8.89° C | 73% | 1030.6 hPa | 0 mm | - | - | - |
| 1777519023 | 8.89° C | 73% | 1030.5 hPa | 0 mm | - | - | - |
| 1777518475 | 8.33° C | 74% | 1030.5 hPa | 0 mm | - | - | - |
| 1777518419 | 8.33° C | 74% | 1030.5 hPa | 0 mm | - | - | - |
| 1777517820 | 7.78° C | 74% | 1030.6 hPa | 0 mm | - | - | - |
| 1777517219 | 6.67° C | 73% | 1030.7 hPa | 0 mm | - | - | - |
| 1777516619 | 6.67° C | 70% | 1030.9 hPa | 0 mm | - | - | - |
| 1777514819 | 6.67° C | 77% | 1030.9 hPa | 0 mm | - | - | - |
| 1777514293 | 5.56° C | 77% | 1030.8 hPa | 0 mm | - | - | - |
| 1777514219 | 5.56° C | 77% | 1030.8 hPa | 0 mm | - | - | - |
| 1777513619 | 3.89° C | 75% | 1030.8 hPa | 0 mm | - | - | - |
| 1777513020 | 5° C | 76% | 1030.8 hPa | 0 mm | - | - | - |
| 1777512420 | 5.56° C | 77% | 1030.7 hPa | 0 mm | - | - | - |
| 1777511820 | 5° C | 77% | 1030.7 hPa | 0 mm | - | - | - |
* Rain latest hour (hover to see other rain measurements)
** Current wind speed in m/s (hover to see current wind gust speed)